This is the latest recevied weather packets stored in our database for station/object KC8PTQ. If no packets are shown the sender has not sent any weather packets the latest 1 day(s).
| Time | Temp. | Humidity | Pressure | Rain* | Wind** | Luminosity | Snow |
|---|---|---|---|---|---|---|---|
| 1778038664 | 8.89° C | 99% | 1009.8 hPa | 1.27 mm | - | 0 W/m² | - |
| 1778038361 | 8.89° C | 99% | 1010.1 hPa | 3.05 mm | - | 0 W/m² | - |
| 1778038058 | 9.44° C | 99% | 1009.8 hPa | 1.78 mm | - | 0 W/m² | - |
| 1778037755 | 9.44° C | 99% | 1010.3 hPa | 1.27 mm | - | 0 W/m² | - |
| 1778037452 | 9.44° C | 99% | 1010.1 hPa | 3.05 mm | - | 0 W/m² | - |
| 1778037149 | 9.44° C | 99% | 1010.2 hPa | 1.78 mm | - | 0 W/m² | - |
| 1778036847 | 9.44° C | 99% | 1010.1 hPa | 3.05 mm | - | 0 W/m² | - |
| 1778036545 | 9.44° C | 99% | 1010.1 hPa | 1.27 mm | - | 0 W/m² | - |
| 1778036241 | 9.44° C | 99% | 1010.4 hPa | 1.78 mm | - | 0 W/m² | - |
| 1778035938 | 9.44° C | 99% | 1010.1 hPa | 1.78 mm | - | 0 W/m² | - |
| 1778035634 | 9.44° C | 99% | 1010.2 hPa | 1.27 mm | - | 0 W/m² | - |
| 1778035331 | 9.44° C | 99% | 1010.3 hPa | 3.05 mm | - | 0 W/m² | - |
| 1778035027 | 9.44° C | 99% | 1010.3 hPa | 3.05 mm | - | 0 W/m² | - |
| 1778034422 | 9.44° C | 99% | 1010.5 hPa | 3.05 mm | - | 0 W/m² | - |
| 1778033514 | 9.44° C | 99% | 1010.2 hPa | 4.83 mm | - | 0 W/m² | - |
| 1778033211 | 9.44° C | 99% | 1010.2 hPa | 4.32 mm | - | 0 W/m² | - |
| 1778032909 | 9.44° C | 99% | 1010.1 hPa | 4.32 mm | - | 0 W/m² | - |
| 1778032606 | 9.44° C | 99% | 1009.7 hPa | 4.83 mm | - | 0 W/m² | - |
| 1778032304 | 9.44° C | 99% | 1009.6 hPa | 3.05 mm | - | 0 W/m² | - |
| 1778032001 | 9.44° C | 99% | 1009.6 hPa | 3.05 mm | - | 0 W/m² | - |
| 1778031696 | 9.44° C | 99% | 1009.4 hPa | 4.83 mm | - | 0 W/m² | - |
| 1778031395 | 10° C | 99% | 1009.4 hPa | 6.1 mm | - | 0 W/m² | - |
| 1778030787 | 10° C | 99% | 1009.5 hPa | 8.89 mm | - | 0 W/m² | - |
| 1778030484 | 10° C | 99% | 1009.4 hPa | 8.89 mm | - | 0 W/m² | - |
| 1778030182 | 10.56° C | 99% | 1009.4 hPa | 8.89 mm | - | 0 W/m² | - |
* Rain latest hour (hover to see other rain measurements)
** Current wind speed in m/s (hover to see current wind gust speed)